Regional Weather Roundup
Issued by NWS

Home | Current Version | Previous Version | Text Only | Print | Product List | Glossary Off
Versions: 1 2 3 4 5 6 7 8 9 10 11 12 13 14 15 16 17 18 19 20 21 22 23 24 25 26 27 28 29 30 31 32 33 34 35 36 37 38 39 40 41 42 43 44 45 46 47 48 49 50

000
ASUS43 KBIS 252359
RWRND

NORTH DAKOTA REGIONAL WEATHER ROUNDUP
NATIONAL WEATHER SERVICE BISMARCK ND
600 PM CST THU DEC 25 2014

NOTE: "FAIR" INDICATES FEW OR NO CLOUDS BELOW 12,000 FEET WITH NO
SIGNIFICANT WEATHER AND/OR OBSTRUCTIONS TO VISIBILITY.


NDZ001>003-009>011-017-260100-
NORTHWEST NORTH DAKOTA

CITY           SKY/WX    TMP DP  RH WIND       PRES   REMARKS
WILLISTON      CLOUDY    22  15  75 NW12      29.99R WCI  10
6HR MIN TEMP:  22; 6HR MAX TEMP:  27;

MINOT          CLOUDY    24  18  77 NW14      29.93R WCI  12
$$

NDZ018>021-031>035-040>046-260100-
SOUTHWEST NORTH DAKOTA

CITY           SKY/WX    TMP DP  RH WIND       PRES   REMARKS
BISMARCK       CLOUDY    28  22  78 N12       29.92R WCI  18
6HR MIN TEMP:  27; 6HR MAX TEMP:  30; 6HR PCP:  0.01;

DICKINSON      CLOUDY    25  16  68 NW16      29.90R WCI  12
GARRISON         N/A     25  20  81 N17       29.92R WCI  12
6HR MIN TEMP:  25; 6HR MAX TEMP:  28;

HETTINGER ARPT CLOUDY    23  18  81 N16       29.91R WCI  10
$$

NDZ004>008-012>016-024-026-027-054-260100-
NORTHEAST NORTH DAKOTA

CITY           SKY/WX    TMP DP  RH WIND       PRES   REMARKS
GRAND FORKS    CLOUDY    27  24  89 N9        29.91R WCI  18
GRND FRKS AFB  CLOUDY    27  27 100 N7        29.91R WCI  19
DEVILS LAKE    CLOUDY    25  19  80 N6        29.90R WCI  18
$$

NDZ022-023-025-028>030-036>039-047>053-260100-
SOUTHEAST NORTH DAKOTA

CITY           SKY/WX    TMP DP  RH WIND       PRES   REMARKS
FARGO          CLOUDY    29  23  78 N15       29.88R WCI  18
6HR MIN TEMP:  29; 6HR MAX TEMP:  31;

$$



USA.gov is the U.S. government's official web portal to all federal, state and local government web resources and services.